Simultaneous Nadir Overpasses (SNOs) Predictions

Prediction of SNOs between FY3D and AQUA Satellite Orbit:

Table of predicted SNOs for the next 14.0 days since TLE Epoch: 6/6/2020
Index Date (FY3D) Time (FY3D) Lat,Lon (FY3D) SZA (FY3D ) Date (AQUA) Time (AQUA) Lat,Lon (AQUA) SZA (AQUA ) Distance(km) Time Diff (sec)
1 06/07/2020 17:38:18 64.85, 137.05 86.68 06/07/2020 17:38:49 64.84, 137.01 86.66 2.18 31
2 06/07/2020 18:27:54 -68.67, -51.30 97.30 06/07/2020 18:27:10 -68.67, -51.31 97.24 0.75 44
3 06/10/2020 09:54:59 63.88,-107.95 87.50 06/10/2020 09:55:35 63.88,-107.96 87.47 0.58 36
4 06/10/2020 10:44:30 -68.00, 63.75 96.77 06/10/2020 10:43:51 -68.01, 63.77 96.74 1.00 39
5 06/13/2020 02:11:38 63.01, 7.20 88.26 06/13/2020 02:12:19 63.02, 7.21 88.21 0.71 41
6 06/13/2020 03:01:06 -67.33, 178.84 96.20 06/13/2020 03:00:32 -67.34, 178.89 96.18 2.36 34
7 06/15/2020 18:28:16 62.14, 122.39 89.07 06/15/2020 18:29:02 62.15, 122.42 89.00 1.69 46
8 06/15/2020 19:17:20 -67.79, -64.70 96.76 06/15/2020 19:16:52 -67.78, -64.73 96.71 1.50 28
9 06/18/2020 10:44:29 62.72,-121.22 88.45 06/18/2020 10:45:21 62.72,-121.26 88.41 2.09 52




NCC Satellite Simultaneous Nadir Overpasses (SNOs) Prediction Service
